Dewpoint
30 29 30 25 29 26 20 20 16 22 23 25 28 22 24 29 35 38 39 37 35 35 34 34 35 37 40 41 42 43 44 45 47 46 45 44 41 42 41 42 46 46 46 46
29 30 28 28 26 24 22 20 19 23 21 21 22 22 22 25 28 31 34 32 31 30 28 27 28 32 37 38 41 43 44 45 47 47 47 45 42 42 42 45 47 47 46 48
29 26 27 24 25 24 22 17 22 19 20 17 20 22 20 20 21 23 26 26 23 25 25 24 24 28 38 41 40 42 44 46 47 48 47 46 45 46 45 42 44 47 47 48
26 25 23 25 24 27 24 23 22 22 35 35 18 24 20 17 21 22 25 26 26 28 29 29 26 30 38 42 44 43 45 47 46 48 47 46 44 43 43 43 43 47 47 47
27 27 26 25 26 28 27 23 22 24 33 27 16 36 16 14 18 21 25 27 29 29 30 32 34 36 38 43 46 46 45 46 47 48 48 46 45 44 44 43 42 44 47 47
27 30 30 27 27 24 22 20 22 29 37 37 19 25 32 15 14 20 24 28 28 29 30 32 36 38 40 44 45 48 47 46 47 48 48 47 46 45 45 44 42 41 46 48
25 28 29 30 24 26 26 25 33 34 33 24 27 28 24 22 23 23 25 28 29 29 29 30 32 34 36 38 41 43 43 44 44 45 46 47 48 46 45 44 43 40 42 46
29 26 28 30 29 28 26 30 36 31 25 20 23 24 26 24 27 28 28 29 30 28 30 30 32 34 35 37 39 40 42 41 41 42 46 47 47 48 46 45 43 41 40 44
18 24 28 29 28 30 25 29 23 23 18 24 20 18 22 25 27 27 27 28 29 27 27 29 30 33 35 37 38 40 41 41 41 41 44 44 45 46 45 45 44 43 41 42
17 24 26 28 29 27 26 23 25 34 31 23 18 17 35 27 26 26 27 28 29 28 28 30 31 32 32 33 34 36 36 37 38 39 39 40 41 42 44 44 44 43 42 41
20 23 25 26 24 26 26 26 19 20 18 20 12 31 28 36 27 28 28 30 29 30 28 27 28 28 30 31 31 32 33 34 35 38 37 39 40 40 41 43 42 42 42 41
22 22 25 22 26 28 24 21 18 25 20 20 22 34 21 29 30 30 29 29 30 29 27 27 28 29 29 30 30 30 31 32 35 35 36 37 38 39 39 39 40 42 41 42
24 21 24 19 24 27 24 22 21 19 25 22 26 35 24 28 30 31 31 31 29 27 26 26 27 28 28 29 28 29 31 32 33 33 35 35 35 36 36 36 39 40 41 41
29 19 17 24 20 23 24 24 21 24 25 15 31 29 18 25 28 31 31 30 31 27 25 27 28 28 28 28 29 29 31 32 33 34 35 35 35 36 35 36 38 40 40 42
25 19 18 16 16 22 22 21 23 25 20 18 16 20 18 20 27 30 30 30 29 26 26 28 28 28 28 28 29 29 30 31 31 31 34 34 35 35 37 39 40 41 42 42
26 16 20 20 20 21 20 19 19 21 19 17 15 13 13 20 26 27 28 26 25 26 26 25 26 26 27 28 29 29 30 30 31 30 32 32 33 34 37 38 39 39 40 40
22 19 20 16 18 15 11 13 17 19 19 19 16 16 18 18 21 25 27 23 24 24 24 24 25 26 27 28 28 28 29 30 30 31 31 31 31 33 35 37 38 39 39 40
23 21 20 15 13 2 9 19 21 15 18 21 22 22 23 23 25 27 24 23 23 23 23 24 25 27 28 28 29 31 31 31 30 30 30 31 32 32 33 34 36 36 37 38
28 22 17 15 7 5 5 12 13 16 11 20 21 23 24 26 26 24 23 23 23 24 25 27 29 29 30 31 31 30 30 31 31 31 30 30 32 32 32 33 34 34 34 35
29 27 21 16 12 4 10 20 21 20 12 19 22 22 26 24 22 22 24 24 25 27 28 29 29 28 28 27 27 26 24 26 30 32 32 31 32 32 33 34 34 35 35 35
24 24 21 17 14 13 17 22 21 11 16 23 24 25 27 25 23 24 24 26 27 28 27 26 24 24 24 26 27 26 26 25 28 30 33 33 32 32 32 33 34 34 34 34
21 22 21 21 19 18 21 23 18 20 22 24 24 24 24 24 25 25 26 27 27 25 24 24 25 24 24 24 24 24 23 27 29 30 30 33 32 31 30 32 31 31 31 31
17 19 19 21 21 23 24 24 24 23 22 24 24 24 24 25 25 25 27 26 23 22 21 21 22 21 20 21 22 21 21 24 26 27 27 29 30 31 32 30 30 30 30 30
20 23 20 20 19 24 24 25 25 24 23 24 24 25 26 24 25 26 25 21 19 21 21 21 19 18 17 18 20 20 21 23 25 25 26 27 28 30 30 32 32 30 30 30
19 23 20 20 20 22 23 25 25 24 25 25 25 25 25 26 26 23 21 19 20 20 20 19 18 18 17 17 18 18 20 24 25 26 26 28 29 29 29 30 31 31 32 34
20 19 19 14 19 20 21 23 25 25 26 26 26 26 25 23 21 20 20 21 18 18 18 18 18 18 18 18 18 18 19 23 25 25 26 28 29 27 28 29 29 35 38 38
Lifted_Index
4 4 4 4 4 4 5 5 5 6 6 6 5 6 7 7 7 6 6 7 7 8 8 8 9 9 10 11 11 11 11 11 10 10 11 11 12 13 13 13 13 12 12 12
3 3 3 4 4 4 5 5 5 6 6 6 6 6 7 7 7 7 7 7 7 8 8 8 9 9 10 11 11 11 11 10 10 10 11 12 12 13 13 13 13 12 12 12
2 2 3 3 3 4 4 5 5 5 5 5 5 5 6 7 7 7 7 7 7 7 8 8 9 10 10 11 11 11 11 10 10 10 11 12 12 12 12 13 12 12 12 12
2 2 2 2 3 4 4 5 5 5 4 4 4 4 5 6 6 7 7 7 7 8 8 9 10 10 11 11 11 11 11 10 10 10 11 11 12 12 12 12 12 12 11 11
2 2 2 2 3 4 4 4 5 5 4 4 4 4 4 5 6 6 7 7 8 9 9 10 10 11 11 10 10 10 10 10 10 10 11 11 11 11 11 12 12 12 11 11
1 1 2 2 3 4 4 4 4 4 3 3 3 3 3 4 5 6 6 7 8 9 10 10 10 10 10 10 10 10 10 10 10 10 11 11 11 11 11 11 12 11 10 10
1 1 2 3 3 4 4 4 2 2 1 2 3 3 3 4 5 6 7 8 9 9 10 10 10 11 11 11 11 11 11 11 11 11 11 11 10 11 11 11 11 11 10 9
2 2 3 3 4 4 4 4 2 1 1 1 2 3 3 5 6 7 7 8 9 10 10 11 11 11 11 12 11 11 11 11 11 11 11 11 10 10 10 10 10 11 10 10
3 3 4 4 4 5 5 4 3 2 1 1 2 2 3 4 5 6 8 8 9 10 11 11 12 12 12 12 12 12 11 11 11 11 11 11 11 11 10 10 10 10 10 10
4 4 5 5 5 5 5 5 4 3 2 1 1 2 3 4 5 6 7 8 9 10 11 12 12 12 13 13 12 12 12 12 12 12 12 12 11 11 11 11 11 11 10 10
5 5 5 5 5 5 5 5 4 3 2 1 1 2 3 4 5 6 7 8 10 10 11 11 12 12 13 13 13 13 13 13 13 12 12 12 12 11 11 11 11 11 11 10
5 4 4 4 5 6 5 5 4 4 3 2 2 3 4 6 6 7 8 9 10 10 11 11 12 12 13 13 13 13 13 13 12 12 12 12 12 12 12 12 12 11 11 11
6 4 3 3 4 5 5 5 5 4 4 3 2 3 5 6 7 8 9 9 10 10 10 11 12 12 13 13 13 13 12 12 12 12 12 12 12 12 13 13 12 12 11 11
6 5 3 3 4 4 4 4 5 5 4 3 3 3 5 6 7 8 9 9 9 10 10 11 12 12 12 12 12 12 12 12 12 12 12 12 12 12 12 13 12 12 12 11
6 5 5 5 5 5 5 5 5 5 4 3 3 4 6 7 8 8 9 9 9 10 10 11 12 12 11 11 11 12 12 12 12 12 12 12 12 12 12 13 13 12 12 12
7 6 5 5 5 5 5 5 5 5 5 5 4 5 7 8 9 9 10 10 10 10 10 11 11 11 11 11 11 12 12 12 13 13 13 13 13 13 13 13 13 13 13 12
7 7 5 4 4 4 4 5 5 5 5 5 5 7 8 9 9 9 10 10 10 10 11 11 11 11 11 11 12 12 12 13 13 13 13 13 13 13 13 13 13 13 13 13
8 7 6 4 4 4 4 5 5 5 5 6 7 7 9 9 9 9 10 10 10 11 11 11 11 11 12 12 12 13 13 13 13 13 13 13 13 13 14 14 13 13 13 13
9 8 6 4 3 4 5 6 6 6 6 6 7 8 9 9 9 9 10 10 11 11 11 11 12 12 12 13 13 14 14 14 14 14 14 14 14 13 13 13 13 13 13 13
9 8 6 4 4 4 5 7 8 7 6 7 8 9 9 9 9 9 10 10 11 11 11 11 12 12 12 13 14 14 14 14 14 15 15 15 14 14 13 13 13 13 13 13
7 6 6 5 4 5 6 8 8 7 7 8 9 10 10 9 9 9 10 10 10 10 11 11 11 12 13 13 14 13 13 13 14 14 14 14 14 14 13 13 13 13 13 13
6 6 5 5 5 6 8 9 8 8 8 9 10 10 10 10 10 10 10 10 10 10 11 11 12 12 13 13 13 12 12 13 13 14 14 15 14 14 14 13 13 13 13 13
6 6 6 6 6 7 8 9 9 9 9 9 9 9 9 9 9 10 10 10 10 10 11 12 12 13 13 13 13 13 13 13 14 14 14 15 15 15 14 14 13 13 12 12
7 7 7 6 7 8 9 9 9 9 9 9 9 9 9 9 9 9 9 10 10 11 11 12 12 12 12 13 13 14 14 15 15 15 15 15 15 15 14 14 13 13 12 12
7 7 6 6 7 8 8 9 9 9 9 9 9 9 9 9 9 9 9 9 10 11 11 11 11 11 12 13 14 15 15 15 15 15 15 15 14 14 14 14 14 13 13 12
7 6 6 6 7 8 8 9 9 9 9 9 9 9 9 9 9 9 9 10 10 11 11 11 10 10 12 13 14 15 15 15 15 15 15 14 14 14 14 14 14 13 13 13